FW2600 Weather Reports


time (UTC)temp
C
wind
direction
speed
KPH
gust
KPH
rain 1hr
cm
rain 24hr
cm
rain mn
cm
humidity
%
barometer
mb
20260505062545 15 0.0 0.0 0.00 0.00 0.00 14
20260505061549 15 0.0 0.0 0.00 0.00 0.00 14
20260505060614 15 0.0 0.0 0.00 0.00 0.00 14
20260505055558 14 0.0 0.0 0.00 0.00 0.00 14 1005.2
20260505054542 14 0.0 0.0 0.00 0.00 0.00 14 1005.1
20260505053522 14 0.0 0.0 0.00 0.00 0.00 14 1005.1
20260505052629 13 0.0 0.0 0.00 0.00 0.00 14 1005.1
20260505051549 13 0.0 0.0 0.00 0.00 0.00 14 1005.1
20260505050533 13 0.0 0.0 0.00 0.00 0.00 14 1005.4
20260505041614 13 0.0 0.0 0.00 0.00 0.00 14 1005.5
20260505040557 13 0.0 0.0 0.00 0.00 0.00 14 1005.6
20260505035602 13 0.0 0.0 0.00 0.00 0.00 14 1005.6
20260505034526 13 0.0 0.0 0.00 0.00 0.00 14 1005.6
20260505033612 13 0.0 0.0 0.00 0.00 0.00 14 1005.6
20260505032556 13 0.0 0.0 0.00 0.00 0.00 14 1005.8
20260505031541 14 0.0 0.0 0.00 0.00 0.00 14 1005.8
20260505030521 14 0.0 0.0 0.00 0.00 0.00 14 1005.8
20260505025603 14 0.0 0.0 0.00 0.00 0.00 14 1005.8
20260505024600 14 0.0 0.0 0.00 0.00 0.00 14 1005.9
20260505023458 14 0.0 0.0 0.00 0.00 0.00 14 1006.2
20260505022457 15 0.0 0.0 0.00 0.00 0.00 14 1006.3
20260505021453 15 0.0 0.0 0.00 0.00 0.00 14 1006.2
20260505020512 15 0.0 0.0 0.00 0.00 0.00 14 1006.3
20260505015511 15 0.0 0.0 0.00 0.00 0.00 14 1006.3
20260505014455 15 0.0 0.0 0.00 0.00 0.00 14 1006.3
20260505013438 15 0.0 0.0 0.00 0.00 0.00 14 1006.4
20260505012545 15 0.0 0.0 0.00 0.00 0.00 14 1006.4
20260505011549 15 0.0 0.0 0.00 0.00 0.00 14 1006.3
20260505010514 15 0.0 0.0 0.00 0.00 0.00 14 1006.6
20260505005417 16 0.0 0.0 0.00 0.00 0.00 14 1006.6
20260505004302 16 0.0 0.0 0.00 0.00 0.00 14 1006.5
20260505003246 16 0.0 0.0 0.00 0.00 0.00 14 1006.8
20260505002129 16 0.0 0.0 0.00 0.00 0.00 14 1006.8
20260505000158 16 0.0 0.0 0.00 0.00 0.00 14 1007.0
20260504235142 16 0.0 0.0 0.00 0.00 0.00 14 1007.0
20260504234126 16 0.0 0.0 0.00 0.00 0.00 14 1007.0
20260504233232 17 0.0 0.0 0.00 0.00 0.00 14 1007.2
20260504232216 17 0.0 0.0 0.00 0.00 0.00 14 1007.2
20260504231139 17 0.0 0.0 0.00 0.00 0.00 14 1007.0
20260504230122 17 0.0 0.0 0.00 0.00 0.00 14 1007.2
20260504225328 17 0.0 0.0 0.00 0.00 0.00 14 1007.2
20260504224212 17 0.0 0.0 0.00 0.00 0.00 14 1007.3
20260504223135 17 0.0 0.0 0.00 0.00 0.00 14 1007.6
20260504222119 17 0.0 0.0 0.00 0.00 0.00 14 1007.6
20260504221245 17 0.0 0.0 0.00 0.00 0.00 14 1007.4
20260504220148 17 0.0 0.0 0.00 0.00 0.00 14 1007.6
20260504215032 17 0.0 0.0 0.00 0.00 0.00 14 1007.6
20260504214117 18 0.0 0.0 0.00 0.00 0.00 14 1007.6
20260504213140 18 0.0 0.0 0.00 0.00 0.00 14 1007.8
20260504212104 18 0.0 0.0 0.00 0.00 0.00 14 1007.8
20260504211027 18 0.0 0.0 0.00 0.00 0.00 14 1007.8
20260504210112 18 0.0 0.0 0.00 0.00 0.00 14 1007.8
20260504205056 18 0.0 0.0 0.00 0.00 0.00 14 1007.8
20260504204100 18 0.0 0.0 0.00 0.00 0.00 14 1007.8
20260504203103 18 0.0 0.0 0.00 0.00 0.00 14 1008.0
20260504202108 18 0.0 0.0 0.00 0.00 0.00 14 1008.0
20260504201052 18 0.0 0.0 0.00 0.00 0.00 14 1008.0
20260504195253 19 0.0 0.0 0.00 0.00 0.00 14 1007.8
20260504194236 19 0.0 0.0 0.00 0.00 0.00 14 1007.8
20260504193205 -17 0.0 0.0 0.00 0.00 0.00
20260504192431 -17 0.0 0.0 0.00 0.00 0.00
20260504191253 -17 0.0 0.0 0.00 0.00 0.00
20260504190257 -17 0.0 0.0 0.00 0.00 0.00
20260504185206 -17 0.0 0.0 0.00 0.00 0.00
20260504184153 -17 0.0 0.0 0.00 0.00 0.00
20260504183136 -17 0.0 0.0 0.00 0.00 0.00
20260504182121 -17 0.0 0.0 0.00 0.00 0.00
20260504181128 -17 0.0 0.0 0.00 0.00 0.00
20260504180158 -17 0.0 0.0 0.00 0.00 0.00
20260504174447 23 0.0 0.0 0.00 0.00 0.00 14 1007.5
20260504173430 23 0.0 0.0 0.00 0.00 0.00 14 1007.6
20260504172636 23 0.0 0.0 0.00 0.00 0.00 14 1007.6
20260504171519 23 0.0 0.0 0.00 0.00 0.00 14 1007.6
20260504170442 24 0.0 0.0 0.00 0.00 0.00 14 1007.6
20260504150326 28 0.0 0.0 0.00 0.00 0.00 14 1008.7
20260504140350 28 0.0 0.0 0.00 0.00 0.00 14 1009.3
20260504130515 27 0.0 0.0 0.00 0.00 0.00 14 1009.9
20260504110402 24 0.0 0.0 0.00 0.00 0.00 14 1010.7
20260504100506 22 0.0 0.0 0.00 0.00 0.00 14 1010.8
20260504081408 19 0.0 0.0 0.00 0.00 0.00 14 1010.4
20260504080514 18 0.0 0.0 0.00 0.00 0.00 14 1010.1
20260504070337 16 0.0 0.0 0.00 0.00 0.00 14 1010.2